Regional Weather Roundup
Issued by NWS

Home | Current Version | Previous Version | Graphics & Text | Print | Product List | Glossary On
Versions: 1 2 3 4 5 6 7 8 9 10 11 12 13 14 15 16 17 18 19 20 21 22 23 24 25 26 27 28
000
ASUS45 KGTF 051210
RWRMT
MONTANA HOURLY WEATHER ROUNDUP
NATIONAL WEATHER SERVICE GREAT FALLS MT
600 AM MDT TUE MAY 05 2015

NOTE: "FAIR" INDICATES FEW OR NO CLOUDS BELOW 12000 FEET WITH NO
SIGNIFICANT WEATHER AND/OR OBSTRUCTIONS TO VISIBILITY.

MTZ001>007-043-051300-
WEST OF THE DIVIDE

CITY           SKY/WX    TMP DP  RH WIND       PRES   REMARKS
KALISPELL      CLOUDY    49  39  68 CALM      29.81F
MISSOULA       PTCLDY    49  38  65 NE5       29.83F
BUTTE          CLEAR     36  28  73 CALM      29.86F
DEER LODGE       N/A     39  28  65 CALM      29.89S
EUREKA           N/A     45  32  61 N3        29.79S
HAMILTON         N/A     48  36  61 S6        29.83R
LIBBY            N/A     39  30  70 SE3       29.83R
$$

MTZ008-052>055-051300-
SOUTHWEST MONTANA

CITY           SKY/WX    TMP DP  RH WIND       PRES   REMARKS
BOZEMAN        PTCLDY    45  35  68 CALM      29.83S
DILLON         CLEAR     48  32  53 S13       29.84S
$$

MTZ009-010-012-014-046-048-049-054-051300-
EAST SLOPES AND CENTRAL MONTANA

CITY           SKY/WX    TMP DP  RH WIND       PRES   REMARKS
CUT BANK       MOCLDY    53  34  48 W20       29.77S
GREAT FALLS    PTCLDY    44  33  65 S12       29.76R
MALMSTROM AFB  CLEAR     49  34  56 SW8       29.77R
HELENA         PTCLDY    48  29  47 CALM      29.79F
$$

MTZ011-013-016-021-045-047-050-051-051300-
NORTH CENTRAL MONTANA

CITY           SKY/WX    TMP DP  RH WIND       PRES   REMARKS
HAVRE          CLEAR     42  36  79 E3        29.74S
LEWISTOWN      CLEAR     43  35  73 SE7       29.80F
CHINOOK          N/A     46  43  87 E6        29.74S
FORT BENTON      N/A     46  36  66 W7        29.77R
$$

MTZ017>020-022>042-056>058-061-062-051300-
EASTERN PLAINS

CITY           SKY/WX    TMP DP  RH WIND       PRES   REMARKS
BAKER          CLEAR     41  30  65 SE13      29.94S
BILLINGS       MOCLDY    45  40  82 S6        29.82S
GLASGOW        CLEAR     44  34  67 E15       29.82S
JORDAN           N/A     48  37  65 SE7       29.82S
LIVINGSTON     CLEAR     40  35  83 CALM      29.85S
MILES CITY     CLEAR     49  34  56 SE12      29.85F
SIDNEY         CLEAR     43  28  56 S6        29.93F
WOLF POINT     CLEAR     44  34  67 NE7       29.88F
BIG TIMBER       N/A     43  37  81 W7        29.85S
FORSYTH          N/A     45  37  76 E5        29.82F
PLENTYWOOD       N/A     45  28  53 SE8       29.91F
POPLAR           N/A     45  32  61 E5        29.89S
$$

REGIONAL REPORTS...DAKOTAS

CITY           SKY/WX    TMP DP  RH WIND       PRES   REMARKS
WILLISTON      CLEAR     50  28  42 VRB3      29.95F
MINOT          MOCLDY    53  29  39 SE12      30.03S
DICKINSON      CLEAR     40  29  64 SE9       29.97F
BEACH          FAIR      41  28  60 SE14      29.95S
CROSBY         FAIR      46  30  53 S14       29.95F
WATFORD CITY   FAIR      50  25  37 SE15      29.94S
BISMARCK       CLOUDY    51  30  44 SE12      30.06F
GRAND FORKS    PTCLDY    40  29  64 S6        30.17R
FARGO          CLEAR     48  31  51 SE8       30.18R
BUFFALO SD       N/A     44  29  55 SE10      29.91S
RAPID CITY     CLEAR     38  34  85 SE8       30.00F
$$

REGIONAL REPORTS...WYOMING/IDAHO/WASHINGTON

CITY           SKY/WX    TMP DP  RH WIND       PRES   REMARKS
GILLETTE       CLEAR     43  37  79 S18       29.93F
SHERIDAN       CLEAR     40  38  93 S3        29.86F
BUFFALO WY     CLEAR     44  41  89 SE9       29.90S
CODY           CLEAR     45  36  70 W3        29.88S
YELLOWSTONE LA   N/A     28  26  92 CALM      30.03F
IDAHO FALLS    PTCLDY    44  40  85 N10       29.87S
SALMON           N/A     45  34  65 SE6       29.84F
BOISE          PTCLDY    55  35  47 NW6       29.81R
SPOKANE        PTCLDY    43  32  65 S8        29.89R
$$

REGIONAL REPORTS...ALBERTA

CITY           SKY/WX    TMP DP  RH WIND       PRES   REMARKS
EDMONTON       PTCLDY    45  30  57 E14       29.77S
CALGARY        PTCLDY    45  21  39 W2        29.66F
LETHBRIDGE     PTCLDY    50  27  40 SW14      29.71S
MEDICINE HAT   MOCLDY    45  34  65 SW12      29.69S
$$

REGIONAL REPORTS...SASKATCHEWAN

CITY           SKY/WX    TMP DP  RH WIND       PRES   REMARKS
SWIFT CURRENT  CLEAR     46  39  76 S16G23    29.74S
REGINA         MOCLDY    48  36  61 SE13G18   29.89F
SASKATOON      PTCLDY    45  37  76 NE13G20   29.84S
$$



USA.gov is the U.S. government's official web portal to all federal, state and local government web resources and services.